Вернуться в каталог

STARLINK-2637

АктивенСвязьVLEO
NORAD 48356·PAYLOAD·🇺🇸 United States

Запущен May 4, 2021 с Cape Canaveral Space Force Station

Loading…

Ближайшие Пролёты (ближайшие 24 часа)

TLE

СвежийSource: CelesTrak SupGP

Эпоха: Sep 15, 2026, 01:36 UTC

1 48356C 21038D   26258.06715278 -.00018232  00000+0 -58642-3 0  2582
2 48356  53.1574 197.0863 0001204  91.8550   4.0081 15.31704712    17

Отслеживайте STARLINK-2637 в реальном времени с AllMySat

Download on the App Store